Regional Weather Roundup
Issued by NWS Jackson, KY

Home | Current Version | Previous Version | Text Only | Print | Product List | Glossary Off
Versions: 1 2 3 4 5 6 7 8 9 10 11 12 13 14 15 16 17 18 19 20 21 22 23 24 25 26 27

000
ASUS43 KJKL 160910
RWRJKL

EAST KENTUCKY HOURLY WEATHER ROUNDUP
NATIONAL WEATHER SERVICE JACKSON KY
500 AM EDT WED AUG 16 2017

NOTE: "FAIR" INDICATES FEW OR NO CLOUDS BELOW 12,000 FEET WITH
NO SIGNIFICANT WEATHER AND/OR OBSTRUCTIONS TO VISIBILITY.

* THESE REPORTS ARE NOT UNDER NWS QUALITY CONTROL AND MAY NOT
  REPORT WEATHER SUCH AS PRECIPITATION AND FOG.

KYZ079-080-083-085-087-088-110-112-115-119-120-161000
...EASTERN KENTUCKY...

CITY           SKY/WX    TMP DP  RH WIND       PRES   REMARKS
JACKSON        FOG       71  70  96 CALM      30.03F VSB 3/4
LONDON         FOG       70  69  97 CALM      30.03S VSB 1/4
SOMERSET*      CLOUDY    68  68 100 CALM      30.03S FOG
MONTICELLO*    FOG       68  67  96 W9        30.04S VSB 1/4
WILLIAMSBURG*  CLOUDY    68  68 100 CALM      30.04R VSB<1/4
MIDDLESBORO*   CLOUDY    70  70 100 CALM      30.05S FOG
HARLAN APT*    CLOUDY    68  66  94 CALM      30.05F
PIKE CO APT*   FOG       69  69 100 CALM      30.04S VSB<1/4
BIG SANDY APT* FOG       69  69 100 SE3       30.03S VSB 1/4
MOREHEAD APT*  FOG       70  68  94 CALM      30.03S VSB 1/2
$$

KYZ035-036-041-042-044-050-067-078-099-161000
...CENTRAL KENTUCKY...

CITY           SKY/WX    TMP DP  RH WIND       PRES   REMARKS
MT STERLING*   MOCLDY    68  68 100 CALM      30.03S FOG
FLEMING/MASON* CLEAR     67  67 100 CALM      30.02S FOG
DANVILLE*      MOCLDY    68  68 100 CALM      30.02F FOG
LEXINGTON      CLEAR     70  66  87 CALM      30.01R
FRANKFORT      CLEAR     70  66  87 CALM      29.99R FOG
LOUISVILLE     PTCLDY    75  71  87 E5        29.97S
LEBANON*         N/A     72  72 100 CALM      30.00S
GLASGOW*       CLOUDY    72  72 100 CALM      29.99S
BOWLING GREEN  PTCLDY    74  72  93 SE3       29.99R
$$

KYZ091>093-OHZ055-061-077-WVZ005-015-034-035-042-161000
...SOUTHERN OHIO/WEST VIRGINIA...

CITY           SKY/WX    TMP DP  RH WIND       PRES   REMARKS
COVINGTON      PTCLDY    68  68 100 CALM      30.01R
COLUMBUS       HVY RAIN  72  69  90 CALM      30.00R FOG
DAYTON         MOCLDY    70  67  90 CALM      30.01S
WILMINGTON     CLEAR     64  64 100 CALM      30.01R FOG
HUNTINGTON     FOG       68  67  96 E3        30.00F VSB 1/4
CHARLESTON     FOG       69  67  93 CALM      30.02R VSB 1/2
PINEVILLE*     FOG       69  68  97 MISG      30.12R VSB 1/2
BECKLEY        PTCLDY    63  62  97 CALM      30.10S FOG
BLUEFIELD      PTCLDY    64  63  96 SW5       30.12S FOG
LOGAN CO APT*  FOG       68  68 100 CALM      30.06R VSB<1/4
$$

VAZ002-007-008-TNZ017-027-036-066-071-161000
...SOUTHWEST VIRGINIA/EAST TENNESSEE...

CITY           SKY/WX    TMP DP  RH WIND       PRES   REMARKS
WISE*          CLOUDY    70  70 100 CALM      30.12R
JONESVILLE*    FOG       68  68 100 CALM      30.06S VSB 1/2
ABINGDON*      FOG       71  71 100 CALM      30.08S VSB 1/2
BRISTOL        CLOUDY    71  71 100 SE3       30.05S
MORRISTOWN*    MOSUNNY   72  72 100 CALM      30.03R
SEVIERVILLE*   SUNNY     70  66  88 CALM      30.02R
KNOXVILLE      CLEAR     72  70  93 CALM      30.01S
LAFOLLETTE*    FOG       70  70 100 CALM      30.06S VSB 0
OAK RIDGE      MOCLDY    72  69  90 CALM      30.03R
CROSSVILLE     CLEAR     66  66 100 CALM      30.07S FOG
NASHVILLE      MOCLDY    74  72  93 CALM      29.99F
$$

...KEY TO REMARKS...
VSB - VISIBILITY IN MILES
WCI - WIND CHILL INDEX
HX  - HEAT INDEX

$$




USA.gov is the U.S. government's official web portal to all federal, state and local government web resources and services.